Regional Weather Roundup
Issued by NWS

Home | Current Version | Previous Version | Graphics & Text | Print | Product List | Glossary On
Versions: 1 2 3 4 5 6 7 8 9 10 11 12 13 14 15 16 17 18 19 20 21 22 23 24 25 26 27 28 29 30 31 32 33 34 35 36 37 38 39 40 41 42 43 44 45 46 47 48 49 50
000
ASUS45 KSLC 281910
RWRUT

UTAH REGIONAL WEATHER ROUNDUP
NATIONAL WEATHER SERVICE SALT LAKE CITY UT
1200 PM MST WED JAN 28 2015

UTZ001>011-023>025-282000-

NORTHERN UTAH

CITY           SKY/WX    TMP DP  RH WIND       PRES   REMARKS
BRIGHAM CITY   CLOUDY    45  37  74 CALM      30.33R
HILL AFB       CLOUDY    44  35  72 E3        30.31S
LOGAN          CLOUDY    40  38  93 CALM      30.30R FOG
OGDEN          LGT RAIN  44  38  79 W5        30.31S
PROVO AIRPORT  CLOUDY    43  36  75 VRB3      30.31S
SALT LAKE CITY PTSUNNY   48  38  68 N8        30.31S
VERNAL         SUNNY     44  29  55 SE3       30.27F
WENDOVER       PTSUNNY   43  34  70 E6        30.32F
HEBER CITY     PTSUNNY   45  34  65 CALM      30.29F
WEST JORDAN    CLOUDY    46  39  76 NW3       30.32S

$$

UTZ012>022-026-027-282000-

SOUTHERN/CENTRAL UTAH

CITY           SKY/WX    TMP DP  RH WIND       PRES   REMARKS
BLANDING       MOSUNNY   48  35  62 CALM      30.35F
BRYCE CANYON   MOSUNNY   40  29  64 NW3       30.31F
CEDAR CITY     SUNNY     47  32  56 CALM      30.27F
DELTA          SUNNY     48  34  59 CALM      30.31F
HANKSVILLE       N/A     43  34  70 CALM      30.32
MILFORD        SUNNY     49  36  61 SW12      30.29F
MOAB/CYNLANDS  SUNNY     48  35  60 N3        30.28F
PRICE          CLOUDY    46  32  58 SE6       30.28F
ST GEORGE      PTCLDY    50  41  71 CALM      30.31F
KANAB          PTSUNNY   45  39  81 CALM      30.33F

$$

REGIONAL REPORTS     COLORADO/ARIZONA

CITY           SKY/WX    TMP DP  RH WIND       PRES   REMARKS
CRAIG, CO      MOSUNNY   40  32  73 W10       30.25F WCI  33
GRAND JUNCTION SUNNY     47  32  56 CALM      30.28F
RIFLE          SUNNY     43  29  57 CALM      30.28F
MONTROSE       MOSUNNY   50  31  48 N5        30.30F
CORTEZ         PTSUNNY   51  35  54 W5        30.29F
PAGE, AZ       NOT AVBL
GRAND CANYON   PTSUNNY   48  24  39 CALM      30.30F
KINGMAN        SUNNY     56  46  69 N10       30.24F
FLAGSTAFF      MOSUNNY   48  29  47 CALM      30.30F

$$

REGIONAL REPORTS    NEVADA/IDAHO/WYOMING

CITY           SKY/WX    TMP DP  RH WIND       PRES   REMARKS
LAS VEGAS, NV  PTSUNNY   59  44  57 CALM      30.22F
ELY            MOSUNNY   44  32  62 VRB5      30.32F
ELKO           MOSUNNY   47  36  65 SW8       30.33F
POCATELLO, ID  CLOUDY    37  37 100 SW14      30.33S FOG     WCI  28
BURLEY         CLOUDY    43  37  79 W10G20    30.33R
EVANSTON, WY   CLOUDY    37  31  78 SW14      30.28S WCI  28
ROCK SPRINGS   SUNNY     40  30  67 W24G32    30.21F WCI  29
KEMMERER       CLOUDY    34  32  93 W15       30.26S WCI  24

$$


USA.gov is the U.S. government's official web portal to all federal, state and local government web resources and services.